Location: Castle Hill Houses
(40.8186°N, 73.8497°W)
Time: 22:00:31
(UTC+00:00)

Cosmos 2263 Rocket - Pass Details

Date: 26 January 2020
Orbit: 822 x 849 km, 71.0° (Epoch: 28 February)

Event Time Altitude Azimuth Distance (km) Brightness Sun altitude
Exits shadow 11:00:33 16° 308° (NW) 2,077 3.7 -13.5°
Maximum altitude 11:04:11 31° 257° (WSW) 1,453 3.0 -12.8°
Drops below altitude 10° 11:09:03 10° 197° (SSW) 2,462 4.6 -11.9°
Sets 11:11:45 0° 187° (S) 3,395 5.5 -11.4°
